Time,TemperatureF,DewpointF,PressureIn,WindDirection,WindDirectionDegrees,WindSpeedMPH,WindSpeedGustMPH,Humidity,HourlyPrecipIn,Conditions,Clouds,dailyrainin,SoftwareType,DateUTC
2013-03-16 00:00:00,51.9,37.1,29.92,ESE,102,0.0,0.0,57,0.00,,,0.00,Wunderground v.1.15,2013-03-16 04:00:00,
2013-03-16 00:05:00,51.6,37.3,29.92,ESE,102,0.0,0.0,58,0.00,,,0.00,Wunderground v.1.15,2013-03-16 04:05:00,
2013-03-16 00:10:00,51.4,37.1,29.91,ESE,102,0.0,0.0,58,0.00,,,0.00,Wunderground v.1.15,2013-03-16 04:10:00,
2013-03-16 00:15:00,51.4,37.1,29.91,ESE,102,0.0,0.0,58,0.00,,,0.00,Wunderground v.1.15,2013-03-16 04:15:00,
2013-03-16 00:20:00,51.3,37.4,29.91,ESE,102,0.0,0.0,59,0.00,,,0.00,Wunderground v.1.15,2013-03-16 04:20:00,
2013-03-16 00:30:00,50.9,37.1,29.91,ESE,102,0.0,0.0,59,0.00,,,0.00,Wunderground v.1.15,2013-03-16 04:30:00,
2013-03-16 00:35:00,50.7,37.3,29.91,ESE,102,0.0,0.0,60,0.00,,,0.00,Wunderground v.1.15,2013-03-16 04:35:00,
2013-03-16 00:40:00,50.4,37.4,29.90,ESE,102,0.0,0.0,61,0.00,,,0.00,Wunderground v.1.15,2013-03-16 04:40:00,
2013-03-16 00:45:00,50.0,37.1,29.90,ESE,102,0.0,0.0,61,0.00,,,0.00,Wunderground v.1.15,2013-03-16 04:45:00,
2013-03-16 00:50:00,49.7,37.2,29.90,ESE,102,0.0,0.0,62,0.00,,,0.00,Wunderground v.1.15,2013-03-16 04:50:00,
2013-03-16 01:00:00,49.6,37.5,29.90,ESE,102,0.0,0.0,63,0.00,,,0.00,Wunderground v.1.15,2013-03-16 05:00:00,
2013-03-16 01:05:00,49.3,37.2,29.90,ESE,102,0.0,0.0,63,0.00,,,0.00,Wunderground v.1.15,2013-03-16 05:05:00,
2013-03-16 01:15:00,49.1,37.0,29.90,ESE,102,0.0,0.0,63,0.00,,,0.00,Wunderground v.1.15,2013-03-16 05:15:00,
2013-03-16 01:20:00,49.1,37.4,29.90,ESE,102,0.0,0.0,64,0.00,,,0.00,Wunderground v.1.15,2013-03-16 05:20:00,
2013-03-16 01:25:00,49.0,37.3,29.89,ESE,102,0.0,0.0,64,0.00,,,0.00,Wunderground v.1.15,2013-03-16 05:25:00,
2013-03-16 01:30:00,49.0,37.3,29.89,ESE,103,0.0,0.0,64,0.00,,,0.00,Wunderground v.1.15,2013-03-16 05:30:00,
2013-03-16 01:35:00,49.0,37.3,29.89,ESE,103,0.0,0.0,64,0.00,,,0.00,Wunderground v.1.15,2013-03-16 05:35:00,
2013-03-16 01:40:00,48.8,37.2,29.89,ESE,103,0.0,0.0,64,0.00,,,0.00,Wunderground v.1.15,2013-03-16 05:40:00,
2013-03-16 01:45:00,48.8,37.6,29.89,ESE,103,0.0,0.0,65,0.00,,,0.00,Wunderground v.1.15,2013-03-16 05:45:00,
2013-03-16 01:50:00,48.9,37.3,29.89,ESE,103,0.0,0.0,64,0.00,,,0.00,Wunderground v.1.15,2013-03-16 05:50:00,
2013-03-16 01:55:00,48.8,37.6,29.89,ESE,103,0.0,0.0,65,0.00,,,0.00,Wunderground v.1.15,2013-03-16 05:55:00,
2013-03-16 02:05:00,48.4,37.6,29.88,ESE,103,0.0,0.0,66,0.00,,,0.00,Wunderground v.1.15,2013-03-16 06:05:00,
2013-03-16 02:15:00,48.2,37.4,29.88,ESE,103,0.0,0.0,66,0.00,,,0.00,Wunderground v.1.15,2013-03-16 06:15:00,
2013-03-16 02:20:00,48.2,37.4,29.88,ESE,103,0.0,0.0,66,0.00,,,0.00,Wunderground v.1.15,2013-03-16 06:20:00,
2013-03-16 02:25:00,48.0,37.6,29.88,ESE,103,0.0,0.0,67,0.00,,,0.00,Wunderground v.1.15,2013-03-16 06:25:00,
2013-03-16 02:35:00,47.4,37.4,29.88,ESE,103,0.0,0.0,68,0.00,,,0.00,Wunderground v.1.15,2013-03-16 06:35:00,
2013-03-16 02:40:00,47.3,37.6,29.88,ESE,103,0.0,0.0,69,0.00,,,0.00,Wunderground v.1.15,2013-03-16 06:40:00,
2013-03-16 02:50:00,46.9,37.6,29.87,ESE,103,0.0,0.0,70,0.00,,,0.00,Wunderground v.1.15,2013-03-16 06:50:00,
2013-03-16 02:55:00,46.7,37.4,29.87,ESE,103,0.0,0.0,70,0.00,,,0.00,Wunderground v.1.15,2013-03-16 06:55:00,
2013-03-16 03:05:00,46.1,37.6,29.87,ESE,103,0.0,0.0,72,0.00,,,0.00,Wunderground v.1.15,2013-03-16 07:05:00,
2013-03-16 03:15:00,45.5,37.7,29.87,ESE,103,0.0,0.0,74,0.00,,,0.00,Wunderground v.1.15,2013-03-16 07:15:00,
2013-03-16 03:25:00,45.0,37.6,29.86,ESE,103,0.0,0.0,75,0.00,,,0.00,Wunderground v.1.15,2013-03-16 07:25:00,
2013-03-16 03:30:00,44.6,37.2,29.86,ESE,103,0.0,0.0,75,0.00,,,0.00,Wunderground v.1.15,2013-03-16 07:30:00,
2013-03-16 03:35:00,44.4,37.3,29.86,ESE,103,0.0,0.0,76,0.00,,,0.00,Wunderground v.1.15,2013-03-16 07:35:00,
2013-03-16 03:40:00,44.2,37.1,29.85,ESE,103,0.0,0.0,76,0.00,,,0.00,Wunderground v.1.15,2013-03-16 07:40:00,
2013-03-16 03:45:00,44.0,36.9,29.85,ESE,103,0.0,0.0,76,0.00,,,0.00,Wunderground v.1.15,2013-03-16 07:45:00,
2013-03-16 03:50:00,43.7,37.0,29.85,ESE,103,0.0,0.0,77,0.00,,,0.00,Wunderground v.1.15,2013-03-16 07:50:00,
2013-03-16 03:55:00,43.5,37.1,29.85,ESE,103,0.0,0.0,78,0.00,,,0.00,Wunderground v.1.15,2013-03-16 07:55:00,
2013-03-16 04:00:00,43.3,36.9,29.85,ESE,103,0.0,0.0,78,0.00,,,0.00,Wunderground v.1.15,2013-03-16 08:00:00,
2013-03-16 04:05:00,43.0,36.9,29.85,ESE,103,0.0,0.0,79,0.00,,,0.00,Wunderground v.1.15,2013-03-16 08:05:00,
2013-03-16 04:15:00,42.6,36.9,29.85,ESE,103,0.0,0.0,80,0.00,,,0.00,Wunderground v.1.15,2013-03-16 08:15:00,
2013-03-16 04:20:00,42.4,36.7,29.85,ESE,103,0.0,0.0,80,0.00,,,0.00,Wunderground v.1.15,2013-03-16 08:20:00,
2013-03-16 04:25:00,42.3,36.9,29.84,ESE,103,0.0,0.0,81,0.00,,,0.00,Wunderground v.1.15,2013-03-16 08:25:00,
2013-03-16 04:30:00,42.1,36.7,29.84,ESE,103,0.0,0.0,81,0.00,,,0.00,Wunderground v.1.15,2013-03-16 08:30:00,
2013-03-16 04:35:00,41.9,36.8,29.84,ESE,103,0.0,0.0,82,0.00,,,0.00,Wunderground v.1.15,2013-03-16 08:35:00,
2013-03-16 04:45:00,41.9,37.1,29.84,ESE,103,0.0,0.0,83,0.00,,,0.00,Wunderground v.1.15,2013-03-16 08:45:00,
2013-03-16 04:50:00,42.0,37.5,29.84,ESE,103,0.0,0.0,84,0.00,,,0.00,Wunderground v.1.15,2013-03-16 08:50:00,
2013-03-16 04:55:00,41.9,37.4,29.84,ESE,103,0.0,0.0,84,0.00,,,0.00,Wunderground v.1.15,2013-03-16 08:55:00,
2013-03-16 05:00:00,41.9,37.4,29.84,ESE,103,0.0,0.0,84,0.00,,,0.00,Wunderground v.1.15,2013-03-16 09:00:00,
2013-03-16 05:05:00,41.8,37.3,29.83,ESE,103,0.0,0.0,84,0.00,,,0.00,Wunderground v.1.15,2013-03-16 09:05:00,
2013-03-16 05:15:00,42.2,38.0,29.83,ESE,104,0.0,0.0,85,0.00,,,0.00,Wunderground v.1.15,2013-03-16 09:15:00,
2013-03-16 05:25:00,42.2,37.7,29.84,ESE,105,0.0,0.0,84,0.00,,,0.00,Wunderground v.1.15,2013-03-16 09:25:00,
2013-03-16 05:30:00,42.0,37.5,29.84,ESE,105,0.0,0.0,84,0.00,,,0.00,Wunderground v.1.15,2013-03-16 09:30:00,
2013-03-16 05:35:00,41.9,37.4,29.84,ESE,105,0.0,0.0,84,0.00,,,0.00,Wunderground v.1.15,2013-03-16 09:35:00,
2013-03-16 05:40:00,41.7,37.2,29.84,ESE,105,0.0,0.0,84,0.00,,,0.00,Wunderground v.1.15,2013-03-16 09:40:00,
2013-03-16 05:50:00,41.4,37.2,29.84,ESE,105,0.0,0.0,85,0.00,,,0.00,Wunderground v.1.15,2013-03-16 09:50:00,
2013-03-16 05:55:00,41.3,37.4,29.84,ESE,105,0.0,0.0,86,0.00,,,0.00,Wunderground v.1.15,2013-03-16 09:55:00,
2013-03-16 06:00:00,41.2,37.3,29.84,ESE,105,0.0,0.0,86,0.00,,,0.00,Wunderground v.1.15,2013-03-16 10:00:00,
2013-03-16 06:05:00,41.2,37.3,29.84,ESE,105,0.0,0.0,86,0.00,,,0.00,Wunderground v.1.15,2013-03-16 10:05:00,
2013-03-16 06:15:00,41.2,37.6,29.84,ESE,105,0.0,0.0,87,0.00,,,0.00,Wunderground v.1.15,2013-03-16 10:15:00,
2013-03-16 06:25:00,41.5,38.2,29.85,ESE,105,0.0,0.0,88,0.00,,,0.00,Wunderground v.1.15,2013-03-16 10:25:00,
2013-03-16 06:30:00,41.8,38.8,29.85,ESE,105,0.0,0.0,89,0.00,,,0.00,Wunderground v.1.15,2013-03-16 10:30:00,
2013-03-16 06:35:00,42.1,39.1,29.85,ESE,105,0.0,0.0,89,0.00,,,0.00,Wunderground v.1.15,2013-03-16 10:35:00,
2013-03-16 06:40:00,42.4,39.1,29.85,ESE,105,0.0,0.0,88,0.00,,,0.00,Wunderground v.1.15,2013-03-16 10:40:00,
2013-03-16 06:45:00,42.6,39.3,29.85,ESE,105,0.0,0.0,88,0.00,,,0.00,Wunderground v.1.15,2013-03-16 10:45:00,
2013-03-16 06:55:00,43.1,39.8,29.85,ESE,105,0.0,0.0,88,0.00,,,0.00,Wunderground v.1.15,2013-03-16 10:55:00,
2013-03-16 07:00:00,43.3,40.0,29.85,ESE,105,0.0,0.0,88,0.00,,,0.00,Wunderground v.1.15,2013-03-16 11:00:00,
2013-03-16 07:05:00,43.4,40.1,29.85,ESE,105,0.0,0.0,88,0.00,,,0.00,Wunderground v.1.15,2013-03-16 11:05:00,
2013-03-16 07:15:00,43.6,40.3,29.85,ESE,105,0.0,0.0,88,0.00,,,0.00,Wunderground v.1.15,2013-03-16 11:15:00,
2013-03-16 07:20:00,43.7,40.4,29.85,ESE,105,0.0,0.0,88,0.00,,,0.00,Wunderground v.1.15,2013-03-16 11:20:00,
2013-03-16 07:30:00,43.8,40.5,29.85,ESE,105,0.0,0.0,88,0.00,,,0.00,Wunderground v.1.15,2013-03-16 11:30:00,
2013-03-16 07:35:00,43.7,40.4,29.85,ESE,105,0.0,0.0,88,0.00,,,0.00,Wunderground v.1.15,2013-03-16 11:35:00,
2013-03-16 07:40:00,43.7,40.1,29.85,ESE,105,0.0,0.0,87,0.00,,,0.00,Wunderground v.1.15,2013-03-16 11:40:00,
2013-03-16 07:45:00,43.8,40.5,29.84,ESE,105,0.0,0.0,88,0.00,,,0.00,Wunderground v.1.15,2013-03-16 11:45:00,
2013-03-16 07:50:00,44.1,40.8,29.84,ESE,105,0.0,0.0,88,0.00,,,0.00,Wunderground v.1.15,2013-03-16 11:50:00,
2013-03-16 07:55:00,44.4,41.1,29.84,ESE,105,0.0,0.0,88,0.00,,,0.00,Wunderground v.1.15,2013-03-16 11:55:00,
2013-03-16 08:05:00,45.4,41.8,29.84,ESE,105,0.0,0.0,87,0.00,,,0.00,Wunderground v.1.15,2013-03-16 12:05:00,
2013-03-16 08:15:00,46.7,42.1,29.84,ESE,105,0.0,0.0,84,0.00,,,0.00,Wunderground v.1.15,2013-03-16 12:15:00,
2013-03-16 08:20:00,47.4,42.5,29.84,ESE,105,0.0,0.0,83,0.00,,,0.00,Wunderground v.1.15,2013-03-16 12:20:00,
2013-03-16 08:25:00,47.8,42.6,29.84,ESE,106,0.0,0.0,82,0.00,,,0.00,Wunderground v.1.15,2013-03-16 12:25:00,
2013-03-16 08:30:00,48.2,43.0,29.84,ESE,106,0.0,0.0,82,0.00,,,0.00,Wunderground v.1.15,2013-03-16 12:30:00,
2013-03-16 08:40:00,49.4,43.2,29.84,ESE,106,0.0,0.0,79,0.00,,,0.00,Wunderground v.1.15,2013-03-16 12:40:00,
2013-03-16 08:45:00,49.7,43.5,29.84,ESE,106,0.0,0.0,79,0.00,,,0.00,Wunderground v.1.15,2013-03-16 12:45:00,
2013-03-16 08:50:00,50.1,43.5,29.84,ESE,106,0.0,0.0,78,0.00,,,0.00,Wunderground v.1.15,2013-03-16 12:50:00,
2013-03-16 08:55:00,50.4,43.8,29.85,ESE,106,0.0,0.0,78,0.00,,,0.00,Wunderground v.1.15,2013-03-16 12:55:00,
2013-03-16 09:00:00,50.6,44.3,29.85,ESE,106,0.0,0.0,79,0.00,,,0.00,Wunderground v.1.15,2013-03-16 13:00:00,
2013-03-16 09:05:00,50.6,44.3,29.85,ESE,106,0.0,0.0,79,0.00,,,0.00,Wunderground v.1.15,2013-03-16 13:05:00,
2013-03-16 09:15:00,50.5,44.9,29.85,ESE,106,0.0,0.0,81,0.00,,,0.00,Wunderground v.1.15,2013-03-16 13:15:00,
2013-03-16 09:20:00,50.5,45.5,29.85,ESE,106,0.0,0.0,83,0.00,,,0.00,Wunderground v.1.15,2013-03-16 13:20:00,
2013-03-16 09:30:00,50.7,47.0,29.85,ESE,117,0.0,0.0,87,0.00,,,0.00,Wunderground v.1.15,2013-03-16 13:30:00,
2013-03-16 09:35:00,50.9,47.5,29.85,ESE,117,0.0,0.0,88,0.00,,,0.00,Wunderground v.1.15,2013-03-16 13:35:00,
2013-03-16 09:40:00,51.0,47.6,29.85,ESE,117,0.0,0.0,88,0.00,,,0.00,Wunderground v.1.15,2013-03-16 13:40:00,
2013-03-16 09:45:00,51.2,48.1,29.84,ESE,117,0.0,0.0,89,0.00,,,0.00,Wunderground v.1.15,2013-03-16 13:45:00,
2013-03-16 09:55:00,51.6,47.2,29.84,ESE,117,0.0,0.0,85,0.00,,,0.00,Wunderground v.1.15,2013-03-16 13:55:00,
2013-03-16 10:00:00,52.3,47.0,29.84,ESE,118,0.0,0.0,82,0.00,,,0.00,Wunderground v.1.15,2013-03-16 14:00:00,
2013-03-16 10:05:00,52.9,46.9,29.84,ESE,118,0.0,0.0,80,0.00,,,0.00,Wunderground v.1.15,2013-03-16 14:05:00,
2013-03-16 10:15:00,53.9,47.5,29.84,ESE,118,0.0,0.0,79,0.00,,,0.00,Wunderground v.1.15,2013-03-16 14:15:00,
2013-03-16 10:20:00,54.4,47.7,29.83,ESE,118,0.0,0.0,78,0.00,,,0.00,Wunderground v.1.15,2013-03-16 14:20:00,
2013-03-16 10:25:00,55.1,47.7,29.83,ESE,120,0.0,0.0,76,0.00,,,0.00,Wunderground v.1.15,2013-03-16 14:25:00,
2013-03-16 10:30:00,55.9,48.1,29.83,SE,145,0.0,0.0,75,0.00,,,0.00,Wunderground v.1.15,2013-03-16 14:30:00,
2013-03-16 10:35:00,56.7,48.1,29.83,SSE,150,1.0,1.0,73,0.00,,,0.00,Wunderground v.1.15,2013-03-16 14:35:00,
2013-03-16 10:40:00,57.5,48.5,29.83,SSE,150,1.0,2.0,72,0.00,,,0.00,Wunderground v.1.15,2013-03-16 14:40:00,
2013-03-16 10:50:00,59.0,48.8,29.83,SSE,157,1.0,1.0,69,0.00,,,0.00,Wunderground v.1.15,2013-03-16 14:50:00,
2013-03-16 10:55:00,59.8,48.8,29.83,South,176,1.0,3.0,67,0.00,,,0.00,Wunderground v.1.15,2013-03-16 14:55:00,
2013-03-16 11:00:00,60.8,49.4,29.82,SSE,168,1.0,1.0,66,0.00,,,0.00,Wunderground v.1.15,2013-03-16 15:00:00,
2013-03-16 11:05:00,61.6,48.9,29.83,West,273,2.0,7.0,63,0.00,,,0.00,Wunderground v.1.15,2013-03-16 15:05:00,
2013-03-16 11:15:00,62.4,48.8,29.82,WSW,257,2.0,2.0,61,0.00,,,0.00,Wunderground v.1.15,2013-03-16 15:15:00,
2013-03-16 11:25:00,62.7,48.6,29.81,NW,307,3.0,5.0,60,0.00,,,0.00,Wunderground v.1.15,2013-03-16 15:25:00,
2013-03-16 11:30:00,62.9,48.3,29.81,SW,236,3.0,3.0,59,0.00,,,0.00,Wunderground v.1.15,2013-03-16 15:30:00,
2013-03-16 11:35:00,63.1,48.5,29.81,WNW,284,2.0,3.0,59,0.00,,,0.00,Wunderground v.1.15,2013-03-16 15:35:00,
2013-03-16 11:40:00,63.6,49.5,29.81,South,173,2.0,4.0,60,0.00,,,0.00,Wunderground v.1.15,2013-03-16 15:40:00,
2013-03-16 11:45:00,64.3,49.2,29.80,SSE,159,2.0,4.0,58,0.00,,,0.00,Wunderground v.1.15,2013-03-16 15:45:00,
2013-03-16 11:50:00,65.2,49.6,29.80,SSE,151,3.0,3.0,57,0.00,,,0.00,Wunderground v.1.15,2013-03-16 15:50:00,
2013-03-16 12:00:00,66.0,48.9,29.79,SSW,197,3.0,3.0,54,0.00,,,0.00,Wunderground v.1.15,2013-03-16 16:00:00,
2013-03-16 12:05:00,66.3,49.6,29.79,SSE,153,3.0,4.0,55,0.00,,,0.00,Wunderground v.1.15,2013-03-16 16:05:00,
2013-03-16 12:15:00,66.7,49.5,29.78,SSW,205,3.0,4.0,54,0.00,,,0.00,Wunderground v.1.15,2013-03-16 16:15:00,
2013-03-16 12:20:00,67.2,49.5,29.78,SSE,162,2.0,2.0,53,0.00,,,0.00,Wunderground v.1.15,2013-03-16 16:20:00,
2013-03-16 12:25:00,67.9,50.1,29.79,SE,143,3.0,3.0,53,0.00,,,0.00,Wunderground v.1.15,2013-03-16 16:25:00,
2013-03-16 12:35:00,68.6,49.2,29.78,SE,141,3.0,4.0,50,0.00,,,0.00,Wunderground v.1.15,2013-03-16 16:35:00,
2013-03-16 12:40:00,68.2,50.4,29.78,SSE,161,3.0,4.0,53,0.00,,,0.00,Wunderground v.1.15,2013-03-16 16:40:00,
2013-03-16 12:45:00,68.1,50.3,29.78,SSE,164,3.0,4.0,53,0.00,,,0.00,Wunderground v.1.15,2013-03-16 16:45:00,
2013-03-16 12:50:00,68.2,49.9,29.78,SSW,194,3.0,3.0,52,0.00,,,0.00,Wunderground v.1.15,2013-03-16 16:50:00,
2013-03-16 12:55:00,68.2,49.9,29.78,SSE,164,3.0,3.0,52,0.00,,,0.00,Wunderground v.1.15,2013-03-16 16:55:00,
2013-03-16 13:05:00,68.4,50.1,29.77,WSW,246,3.0,3.0,52,0.00,,,0.00,Wunderground v.1.15,2013-03-16 17:05:00,
2013-03-16 13:15:00,68.9,50.5,29.77,WSW,246,2.0,3.0,52,0.00,,,0.00,Wunderground v.1.15,2013-03-16 17:15:00,
2013-03-16 13:20:00,69.0,50.1,29.77,SE,142,2.0,2.0,51,0.00,,,0.00,Wunderground v.1.15,2013-03-16 17:20:00,
2013-03-16 13:25:00,69.2,50.8,29.77,SSE,160,2.0,2.0,52,0.00,,,0.00,Wunderground v.1.15,2013-03-16 17:25:00,
2013-03-16 13:30:00,69.4,50.5,29.76,South,172,2.0,3.0,51,0.00,,,0.00,Wunderground v.1.15,2013-03-16 17:30:00,
2013-03-16 13:40:00,71.0,51.4,29.76,SW,217,3.0,3.0,50,0.00,,,0.00,Wunderground v.1.15,2013-03-16 17:40:00,
2013-03-16 13:45:00,72.1,51.9,29.75,ESE,111,2.0,3.0,49,0.00,,,0.00,Wunderground v.1.15,2013-03-16 17:45:00,
2013-03-16 13:50:00,72.7,51.3,29.75,South,186,3.0,3.0,47,0.00,,,0.00,Wunderground v.1.15,2013-03-16 17:50:00,
2013-03-16 13:55:00,73.1,52.2,29.75,South,175,3.0,3.0,48,0.00,,,0.00,Wunderground v.1.15,2013-03-16 17:55:00,
2013-03-16 14:00:00,73.3,51.3,29.75,SSE,148,3.0,3.0,46,0.00,,,0.00,Wunderground v.1.15,2013-03-16 18:00:00,
2013-03-16 14:05:00,73.0,51.6,29.75,West,267,3.0,3.0,47,0.00,,,0.00,Wunderground v.1.15,2013-03-16 18:05:00,
2013-03-16 14:15:00,73.6,51.5,29.73,SSE,152,4.0,4.0,46,0.00,,,0.00,Wunderground v.1.15,2013-03-16 18:15:00,
2013-03-16 14:20:00,73.9,51.8,29.73,SE,145,3.0,4.0,46,0.00,,,0.00,Wunderground v.1.15,2013-03-16 18:20:00,
2013-03-16 14:25:00,74.4,51.7,29.73,South,173,4.0,4.0,45,0.00,,,0.00,Wunderground v.1.15,2013-03-16 18:25:00,
2013-03-16 14:30:00,74.8,51.4,29.73,WNW,295,4.0,7.0,44,0.00,,,0.00,Wunderground v.1.15,2013-03-16 18:30:00,
2013-03-16 14:35:00,75.2,51.2,29.73,WNW,283,4.0,7.0,43,0.00,,,0.00,Wunderground v.1.15,2013-03-16 18:35:00,
2013-03-16 14:45:00,75.1,51.1,29.72,SSE,156,4.0,7.0,43,0.00,,,0.00,Wunderground v.1.15,2013-03-16 18:45:00,
2013-03-16 14:50:00,75.0,51.0,29.72,SE,140,4.0,4.0,43,0.00,,,0.00,Wunderground v.1.15,2013-03-16 18:50:00,
2013-03-16 14:55:00,75.2,51.8,29.72,SSW,196,3.0,5.0,44,0.00,,,0.00,Wunderground v.1.15,2013-03-16 18:55:00,
2013-03-16 15:00:00,75.5,52.1,29.72,SSW,213,3.0,4.0,44,0.00,,,0.00,Wunderground v.1.15,2013-03-16 19:00:00,
2013-03-16 15:05:00,75.4,52.6,29.71,South,180,2.0,4.0,45,0.00,,,0.00,Wunderground v.1.15,2013-03-16 19:05:00,
2013-03-16 15:15:00,75.5,52.1,29.71,South,190,2.0,2.0,44,0.00,,,0.00,Wunderground v.1.15,2013-03-16 19:15:00,
2013-03-16 15:20:00,75.7,52.2,29.71,SSW,193,2.0,5.0,44,0.00,,,0.00,Wunderground v.1.15,2013-03-16 19:20:00,
2013-03-16 15:30:00,75.9,51.8,29.71,SSE,163,4.0,4.0,43,0.00,,,0.00,Wunderground v.1.15,2013-03-16 19:30:00,
2013-03-16 15:35:00,75.9,51.8,29.70,South,178,3.0,4.0,43,0.00,,,0.00,Wunderground v.1.15,2013-03-16 19:35:00,
2013-03-16 15:40:00,76.0,51.9,29.70,SSW,199,3.0,3.0,43,0.00,,,0.00,Wunderground v.1.15,2013-03-16 19:40:00,
2013-03-16 15:45:00,76.1,52.0,29.69,NNW,338,4.0,4.0,43,0.00,,,0.00,Wunderground v.1.15,2013-03-16 19:45:00,
2013-03-16 15:55:00,76.6,51.8,29.69,SE,145,3.0,4.0,42,0.00,,,0.00,Wunderground v.1.15,2013-03-16 19:55:00,
2013-03-16 16:00:00,76.6,51.8,29.68,SW,233,3.0,3.0,42,0.00,,,0.00,Wunderground v.1.15,2013-03-16 20:00:00,
2013-03-16 16:05:00,76.8,52.0,29.69,WNW,292,3.0,3.0,42,0.00,,,0.00,Wunderground v.1.15,2013-03-16 20:05:00,
2013-03-16 16:15:00,77.2,51.7,29.68,ESE,105,4.0,4.0,41,0.00,,,0.00,Wunderground v.1.15,2013-03-16 20:15:00,
2013-03-16 16:25:00,77.8,51.5,29.68,SE,144,4.0,4.0,40,0.00,,,0.00,Wunderground v.1.15,2013-03-16 20:25:00,
2013-03-16 16:30:00,78.3,52.0,29.68,NNW,331,4.0,5.0,40,0.00,,,0.00,Wunderground v.1.15,2013-03-16 20:30:00,
2013-03-16 16:35:00,78.1,51.8,29.67,South,184,3.0,5.0,40,0.00,,,0.00,Wunderground v.1.15,2013-03-16 20:35:00,
2013-03-16 16:40:00,77.9,51.6,29.67,SSE,167,3.0,3.0,40,0.00,,,0.00,Wunderground v.1.15,2013-03-16 20:40:00,
2013-03-16 16:45:00,77.8,52.2,29.67,ESE,122,3.0,3.0,41,0.00,,,0.00,Wunderground v.1.15,2013-03-16 20:45:00,
2013-03-16 16:55:00,77.7,51.5,29.67,SSE,163,4.0,5.0,40,0.00,,,0.00,Wunderground v.1.15,2013-03-16 20:55:00,
2013-03-16 17:00:00,77.7,51.5,29.67,WNW,298,4.0,6.0,40,0.00,,,0.00,Wunderground v.1.15,2013-03-16 21:00:00,
2013-03-16 17:05:00,77.9,51.6,29.66,SSE,150,4.0,6.0,40,0.00,,,0.00,Wunderground v.1.15,2013-03-16 21:05:00,
2013-03-16 17:15:00,78.0,52.4,29.67,SSW,203,3.0,6.0,41,0.00,,,0.00,Wunderground v.1.15,2013-03-16 21:15:00,
2013-03-16 17:20:00,77.7,51.5,29.66,SSE,156,3.0,3.0,40,0.00,,,0.00,Wunderground v.1.15,2013-03-16 21:20:00,
2013-03-16 17:25:00,77.3,51.8,29.66,South,169,3.0,4.0,41,0.00,,,0.00,Wunderground v.1.15,2013-03-16 21:25:00,
2013-03-16 17:35:00,76.8,51.3,29.66,SW,227,4.0,4.0,41,0.00,,,0.00,Wunderground v.1.15,2013-03-16 21:35:00,
2013-03-16 17:40:00,76.5,51.0,29.65,SW,235,4.0,5.0,41,0.00,,,0.00,Wunderground v.1.15,2013-03-16 21:40:00,
2013-03-16 17:45:00,76.4,51.0,29.66,South,172,5.0,5.0,41,0.00,,,0.00,Wunderground v.1.15,2013-03-16 21:45:00,
2013-03-16 17:50:00,76.2,50.8,29.66,SSW,194,4.0,4.0,41,0.00,,,0.00,Wunderground v.1.15,2013-03-16 21:50:00,
2013-03-16 17:55:00,76.0,50.6,29.65,South,185,4.0,4.0,41,0.00,,,0.00,Wunderground v.1.15,2013-03-16 21:55:00,
2013-03-16 18:05:00,75.7,50.3,29.65,SE,136,4.0,6.0,41,0.00,,,0.00,Wunderground v.1.15,2013-03-16 22:05:00,
2013-03-16 18:15:00,75.4,50.7,29.65,WNW,283,3.0,9.0,42,0.00,,,0.00,Wunderground v.1.15,2013-03-16 22:15:00,
2013-03-16 18:20:00,75.3,50.0,29.65,SE,142,3.0,3.0,41,0.00,,,0.00,Wunderground v.1.15,2013-03-16 22:20:00,
2013-03-16 18:25:00,75.3,50.6,29.65,SE,143,3.0,3.0,42,0.00,,,0.00,Wunderground v.1.15,2013-03-16 22:25:00,
2013-03-16 18:30:00,75.2,50.5,29.65,South,190,2.0,2.0,42,0.00,,,0.00,Wunderground v.1.15,2013-03-16 22:30:00,
2013-03-16 18:40:00,74.9,50.9,29.66,SSE,148,2.0,2.0,43,0.00,,,0.00,Wunderground v.1.15,2013-03-16 22:40:00,
2013-03-16 18:45:00,74.7,50.7,29.66,South,172,2.0,6.0,43,0.00,,,0.00,Wunderground v.1.15,2013-03-16 22:45:00,
2013-03-16 18:50:00,74.6,50.6,29.66,SE,139,2.0,6.0,43,0.00,,,0.00,Wunderground v.1.15,2013-03-16 22:50:00,
2013-03-16 18:55:00,74.6,50.6,29.66,SSE,147,3.0,6.0,43,0.00,,,0.00,Wunderground v.1.15,2013-03-16 22:55:00,
2013-03-16 19:00:00,74.5,50.5,29.67,SSE,167,3.0,4.0,43,0.00,,,0.00,Wunderground v.1.15,2013-03-16 23:00:00,
2013-03-16 19:05:00,74.5,50.5,29.66,SSW,193,3.0,4.0,43,0.00,,,0.00,Wunderground v.1.15,2013-03-16 23:05:00,
2013-03-16 19:15:00,74.3,50.4,29.67,WNW,294,2.0,3.0,43,0.00,,,0.00,Wunderground v.1.15,2013-03-16 23:15:00,
2013-03-16 19:20:00,74.2,50.3,29.67,SSW,208,2.0,2.0,43,0.00,,,0.00,Wunderground v.1.15,2013-03-16 23:20:00,
2013-03-16 19:25:00,74.2,50.3,29.67,SSE,157,3.0,3.0,43,0.00,,,0.00,Wunderground v.1.15,2013-03-16 23:25:00,
2013-03-16 19:30:00,74.0,50.1,29.67,SSE,163,2.0,2.0,43,0.00,,,0.00,Wunderground v.1.15,2013-03-16 23:30:00,
2013-03-16 19:35:00,73.8,49.9,29.67,South,188,1.0,2.0,43,0.00,,,0.00,Wunderground v.1.15,2013-03-16 23:35:00,
2013-03-16 19:40:00,73.7,49.8,29.68,South,184,1.0,2.0,43,0.00,,,0.00,Wunderground v.1.15,2013-03-16 23:40:00,
2013-03-16 19:50:00,73.4,49.5,29.69,WNW,302,1.0,1.0,43,0.00,,,0.00,Wunderground v.1.15,2013-03-16 23:50:00,
2013-03-16 19:55:00,73.2,49.4,29.70,SSW,205,1.0,1.0,43,0.00,,,0.00,Wunderground v.1.15,2013-03-16 23:55:00,
2013-03-16 20:00:00,73.1,49.3,29.71,SW,215,1.0,1.0,43,0.00,,,0.00,Wunderground v.1.15,2013-03-17 00:00:00,
2013-03-16 20:05:00,72.8,49.6,29.71,SW,215,0.0,1.0,44,0.00,,,0.00,Wunderground v.1.15,2013-03-17 00:05:00,
2013-03-16 20:15:00,72.3,49.8,29.73,WNW,297,0.0,0.0,45,0.00,,,0.00,Wunderground v.1.15,2013-03-17 00:15:00,
2013-03-16 20:20:00,72.1,49.6,29.73,NW,321,0.0,0.0,45,0.00,,,0.00,Wunderground v.1.15,2013-03-17 00:20:00,
2013-03-16 20:30:00,71.9,50.0,29.75,WNW,283,1.0,1.0,46,0.00,,,0.00,Wunderground v.1.15,2013-03-17 00:30:00,
2013-03-16 20:35:00,71.9,50.0,29.76,WNW,284,0.0,1.0,46,0.00,,,0.00,Wunderground v.1.15,2013-03-17 00:35:00,
2013-03-16 20:40:00,71.7,50.4,29.77,WNW,292,0.0,0.0,47,0.00,,,0.00,Wunderground v.1.15,2013-03-17 00:40:00,
2013-03-16 20:45:00,71.5,50.2,29.77,WNW,292,0.0,0.0,47,0.00,,,0.00,Wunderground v.1.15,2013-03-17 00:45:00,
2013-03-16 20:55:00,71.0,50.3,29.77,WNW,292,0.0,0.0,48,0.00,,,0.00,Wunderground v.1.15,2013-03-17 00:55:00,
2013-03-16 21:00:00,70.7,50.6,29.77,WNW,292,0.0,0.0,49,0.00,,,0.00,Wunderground v.1.15,2013-03-17 01:00:00,
2013-03-16 21:05:00,70.4,50.9,29.78,WNW,292,0.0,0.0,50,0.00,,,0.00,Wunderground v.1.15,2013-03-17 01:05:00,
2013-03-16 21:15:00,69.6,51.2,29.79,WNW,292,0.0,0.0,52,0.00,,,0.00,Wunderground v.1.15,2013-03-17 01:15:00,
2013-03-16 21:20:00,69.3,51.4,29.79,WNW,292,0.0,0.0,53,0.00,,,0.00,Wunderground v.1.15,2013-03-17 01:20:00,
2013-03-16 21:30:00,68.8,51.5,29.80,WSW,257,0.0,0.0,54,0.00,,,0.00,Wunderground v.1.15,2013-03-17 01:30:00,
2013-03-16 21:35:00,68.6,51.8,29.80,WSW,257,0.0,0.0,55,0.00,,,0.00,Wunderground v.1.15,2013-03-17 01:35:00,
2013-03-16 21:40:00,68.5,52.2,29.80,WSW,257,0.0,0.0,56,0.00,,,0.00,Wunderground v.1.15,2013-03-17 01:40:00,
2013-03-16 21:45:00,68.2,52.4,29.80,WSW,257,0.0,0.0,57,0.00,,,0.00,Wunderground v.1.15,2013-03-17 01:45:00,
2013-03-16 21:50:00,67.9,52.1,29.80,WSW,257,0.0,0.0,57,0.00,,,0.00,Wunderground v.1.15,2013-03-17 01:50:00,
2013-03-16 21:55:00,67.5,52.2,29.80,WSW,257,0.0,0.0,58,0.00,,,0.00,Wunderground v.1.15,2013-03-17 01:55:00,
2013-03-16 22:05:00,66.6,52.3,29.81,WSW,257,0.0,0.0,60,0.00,,,0.00,Wunderground v.1.15,2013-03-17 02:05:00,
2013-03-16 22:15:00,65.8,52.0,29.82,WSW,257,0.0,0.0,61,0.00,,,0.00,Wunderground v.1.15,2013-03-17 02:15:00,
2013-03-16 22:20:00,65.5,51.7,29.82,WSW,257,0.0,0.0,61,0.00,,,0.00,Wunderground v.1.15,2013-03-17 02:20:00,
2013-03-16 22:25:00,65.3,51.5,29.82,WSW,257,0.0,0.0,61,0.00,,,0.00,Wunderground v.1.15,2013-03-17 02:25:00,
2013-03-16 22:30:00,65.4,52.0,29.82,WSW,257,0.0,0.0,62,0.00,,,0.00,Wunderground v.1.15,2013-03-17 02:30:00,
2013-03-16 22:40:00,65.2,52.3,29.82,WSW,257,0.0,0.0,63,0.00,,,0.00,Wunderground v.1.15,2013-03-17 02:40:00,
2013-03-16 22:45:00,64.9,52.0,29.82,WSW,257,0.0,0.0,63,0.00,,,0.00,Wunderground v.1.15,2013-03-17 02:45:00,
2013-03-16 22:50:00,64.6,52.1,29.82,WSW,257,0.0,0.0,64,0.00,,,0.00,Wunderground v.1.15,2013-03-17 02:50:00,
2013-03-16 22:55:00,64.0,52.0,29.82,WSW,257,0.0,0.0,65,0.00,,,0.00,Wunderground v.1.15,2013-03-17 02:55:00,
2013-03-16 23:00:00,63.5,51.9,29.82,WSW,257,0.0,0.0,66,0.00,,,0.00,Wunderground v.1.15,2013-03-17 03:00:00,
2013-03-16 23:05:00,63.1,52.4,29.82,WSW,257,0.0,0.0,68,0.00,,,0.00,Wunderground v.1.15,2013-03-17 03:05:00,
2013-03-16 23:15:00,62.6,52.3,29.83,WSW,257,0.0,0.0,69,0.00,,,0.00,Wunderground v.1.15,2013-03-17 03:15:00,
2013-03-16 23:20:00,62.2,51.9,29.83,WSW,257,0.0,0.0,69,0.00,,,0.00,Wunderground v.1.15,2013-03-17 03:20:00,
2013-03-16 23:25:00,61.8,52.3,29.82,WSW,257,0.0,0.0,71,0.00,,,0.00,Wunderground v.1.15,2013-03-17 03:25:00,
2013-03-16 23:30:00,61.6,52.1,29.82,WSW,257,0.0,0.0,71,0.00,,,0.00,Wunderground v.1.15,2013-03-17 03:30:00,
2013-03-16 23:40:00,61.6,52.9,29.82,WSW,257,0.0,0.0,73,0.00,,,0.00,Wunderground v.1.15,2013-03-17 03:40:00,
2013-03-16 23:45:00,62.0,52.9,29.83,SW,215,0.0,0.0,72,0.00,,,0.00,Wunderground v.1.15,2013-03-17 03:45:00,
2013-03-16 23:50:00,62.3,53.2,29.83,SW,215,0.0,0.0,72,0.00,,,0.00,Wunderground v.1.15,2013-03-17 03:50:00,